EB5EEV-5 Weather Reports


time (UTC)temp
F
wind
direction
speed
knots
gust
knots
rain 1hr
in
rain 24hr
in
rain mn
in
humidity
%
barometer
mb
20260510112829 72 313 2.6 5.2 0.00 0.00 0.00 6 1010.0
20260510111348 73 333 0.9 2.6 0.00 0.00 0.00 6 1010.1
20260510110045 72 146 1.7 5.2 0.00 0.00 0.00 6 1010.3
20260510105307 72 146 1.7 5.2 0.00 0.00 0.00 6 1010.3
20260510104001 73 0 0.0 3.5 0.00 0.00 0.00 5 1010.3
20260510102651 70 0 0.0 2.6 0.00 0.00 0.00 6 1010.5
20260510101446 70 195 0.9 2.6 0.00 0.00 0.00 6 1010.5
20260510100213 70 195 0.9 2.6 0.00 0.00 0.00 6 1010.5
20260510094945 71 224 6.1 6.1 0.00 0.00 0.00 6 1010.5
20260510093540 70 250 2.6 5.2 0.00 0.00 0.00 6 1010.4
20260510092318 70 229 3.5 5.2 0.00 0.00 0.00 6 1010.5
20260510091036 71 205 0.9 2.6 0.00 0.00 0.00 6 1010.7
20260510085556 71 277 2.6 2.6 0.00 0.00 0.00 5 1010.8
20260510084226 71 0 0.0 0.0 0.00 0.00 0.00 6 1010.9
20260510083006 69 0 0.0 0.0 0.00 0.00 0.00 7 1010.8
20260510081630 69 0 0.0 0.0 0.00 0.00 0.00 7 1010.8
20260510080201 67 0 0.0 0.0 0.00 0.00 0.00 7 1010.9
20260510074721 65 0 0.0 0.9 0.00 0.00 0.00 8 1011.0
20260510073221 63 0 0.0 0.0 0.00 0.00 0.00 8 1011.0
20260510071851 62 0 0.0 0.9 0.00 0.00 0.00 8 1011.1
20260510070516 61 0 0.0 0.0 0.00 0.00 0.00 8 1010.9
20260510065319 60 0 0.0 0.9 0.00 0.00 0.00 8 1010.8
20260510063924 59 0 0.0 0.0 0.00 0.00 0.00 8 1010.6
20260510062721 58 134 0.9 0.9 0.00 0.00 0.00 8 1010.4
20260510061506 58 0 0.0 0.9 0.00 0.00 0.00 9 1010.3
20260510060158 58 0 0.0 0.9 0.00 0.00 0.00 9 1010.3
20260510054741 57 0 0.0 0.9 0.00 0.00 0.00 9 1010.3
20260510053411 56 124 0.9 0.9 0.00 0.00 0.00 9 1010.2
20260510052141 56 0 0.0 0.0 0.00 0.00 0.00 9 1010.1
20260510050755 56 0 0.0 0.9 0.00 0.00 0.00 9 1010.1
20260510045559 57 0 0.0 0.9 0.00 0.00 0.00 9 1009.9
20260510044341 57 0 0.0 0.9 0.00 0.00 0.00 9 1009.9
20260510042943 57 0 0.0 0.0 0.00 0.00 0.00 9 1009.9
20260510041647 57 0 0.0 0.0 0.00 0.00 0.00 9 1009.9
20260510040158 57 0 0.0 0.9 0.00 0.00 0.00 9 1009.9
20260510034918 57 0 0.0 0.0 0.00 0.00 0.00 9 1009.8
20260510033441 57 0 0.0 0.0 0.00 0.00 0.00 9 1009.7
20260510031951 57 0 0.0 0.0 0.00 0.00 0.00 9 1009.8
20260510030738 57 0 0.0 0.0 0.00 0.00 0.00 9 1009.8
20260510025511 57 0 0.0 0.0 0.00 0.00 0.00 9 1009.8
20260510024216 58 0 0.0 0.0 0.00 0.00 0.00 9 1009.7
20260510022916 58 0 0.0 0.9 0.00 0.00 0.00 9 1009.8
20260510021519 58 158 1.7 1.7 0.00 0.00 0.00 9 1009.7
20260510020031 58 0 0.0 0.0 0.00 0.00 0.00 9 1009.8
20260510014631 58 0 0.0 0.0 0.00 0.00 0.00 9 1009.8
20260510013136 59 0 0.0 0.0 0.00 0.00 0.00 9 1009.8
20260510011727 59 0 0.0 0.0 0.00 0.00 0.00 9 1010.0
20260510010241 59 0 0.0 0.0 0.00 0.00 0.00 9 1010.0
20260510004838 59 0 0.0 0.9 0.00 0.00 0.00 9 1010.1
20260510003637 60 0 0.0 0.9 0.00 0.00 0.00 9 1010.3
20260510002416 59 316 0.9 0.9 0.00 0.00 0.00 9 1010.3
20260510000941 60 0 0.0 0.9 0.00 0.00 0.00 9 1010.7
20260509235456 60 0 0.0 0.0 0.00 0.00 0.00 9 1010.7
20260509234116 60 2 5.2 5.2 0.00 0.00 0.00 9 1010.8
20260509232728 60 0 0.0 0.0 0.00 0.00 0.00 9 1010.9
20260509231351 60 0 0.0 0.9 0.00 0.00 0.00 8 1010.8
20260509230006 60 137 0.9 1.7 0.00 0.00 0.00 9 1010.9
20260509224621 60 137 0.9 1.7 0.00 0.00 0.00 9 1010.9
20260509223206 60 128 1.7 3.5 0.00 0.00 0.00 9 1010.9
20260509221916 60 129 2.6 2.6 0.00 0.00 0.00 9 1010.8
20260509220600 60 0 0.0 0.0 0.00 0.00 0.00 9 1010.7
20260509215244 60 0 0.0 0.9 0.00 0.00 2.00 9 1010.5
20260509213836 60 352 4.3 4.3 0.00 0.00 2.00 9 1010.7
20260509212436 60 0 0.0 0.0 0.00 0.00 2.00 9 1010.9
20260509211221 60 136 0.9 0.9 0.00 0.00 2.00 9 1010.9
20260509205910 60 123 0.9 1.7 0.00 0.00 2.00 9 1010.9
20260509204507 61 0 0.0 0.9 0.00 0.00 2.00 8 1010.5
20260509203155 61 0 0.0 0.9 0.00 0.00 2.00 8 1010.5
20260509201916 61 0 0.0 0.0 0.00 0.00 2.00 8 1010.4
20260509200648 61 0 0.0 0.0 0.00 0.00 2.00 8 1010.3
20260509195452 61 152 0.9 0.9 0.00 0.00 2.00 8 1009.9
20260509194146 62 0 0.0 0.9 0.00 0.00 2.00 8 1009.5
20260509192836 62 0 0.0 0.9 0.00 0.00 2.00 8 1009.3
20260509191349 63 0 0.0 0.0 0.00 0.00 2.00 8 1009.3
20260509185916 63 0 0.0 0.0 0.00 0.00 2.00 8 1009.1
20260509184438 64 252 0.9 0.9 0.00 0.00 2.00 8 1008.7
20260509183157 64 252 0.9 0.9 0.00 0.00 2.00 8 1008.7
20260509181946 65 210 0.9 1.7 0.00 0.00 2.00 8 1008.7
20260509180540 64 165 0.9 0.9 0.00 0.00 2.00 8 1008.5
20260509175116 0 0 0.0 0.0 0.00 0.00 2.00 100 1008.6
20260509173736 0 0 0.0 0.0 0.00 0.00 2.00 100 1008.7
20260509172446 0 0 0.0 0.0 0.00 0.00 2.00 100 1008.4
20260509171021 0 0 0.0 0.0 0.00 0.00 2.00 100 1008.4
20260509165605 0 0 0.0 0.0 0.00 0.00 2.00 100 1008.5
20260509164318 0 0 0.0 0.0 0.00 0.00 2.00 100 1008.2
20260509163028 0 0 0.0 0.0 0.00 0.00 2.00 100 1008.1
20260509161711 0 0 0.0 0.0 0.00 0.00 2.00 100 1008.1
20260509160508 0 0 0.0 0.0 0.00 0.00 2.00 100 1008.1
20260509155044 0 0 0.0 0.0 0.00 0.00 2.00 100 1008.2
20260509153550 0 0 0.0 0.0 0.00 0.00 2.00 100 1008.3
20260509152124 0 0 0.0 0.0 0.00 0.00 2.00 100 1008.0
20260509150736 0 0 0.0 0.0 0.00 0.00 2.00 100 1008.0
20260509145503 0 0 0.0 0.0 0.00 0.00 2.00 100 1008.0
20260509144121 0 0 0.0 0.0 0.00 0.00 2.00 100 1007.9
20260509142851 0 0 0.0 0.0 0.00 0.00 2.00 100 1008.2
20260509141531 0 0 0.0 0.0 0.00 0.00 2.00 100 1008.1
20260509140241 0 0 0.0 0.0 0.00 0.00 2.00 100 1008.1
20260509135006 0 0 0.0 0.0 0.00 0.00 2.00 100 1007.9
20260509133746 0 0 0.0 0.0 0.00 0.00 2.00 100 1008.0
20260509132533 0 0 0.0 0.0 0.11 0.00 2.00 100 1008.1
20260509131300 0 0 0.0 0.0 0.19 0.00 2.00 100 1008.5
20260509130046 59 140 1.7 1.7 0.29 0.00 2.00 9 1009.2
20260509124756 59 140 1.7 1.7 0.29 0.00 2.00 9 1009.2
20260509123339 59 133 3.5 5.2 0.36 0.00 1.99 9 1009.0
20260509121916 59 158 4.3 6.1 0.37 0.00 1.90 9 1009.3
20260509120658 59 103 0.9 0.9 0.58 0.00 1.79 9 1009.4
20260509115301 59 0 0.0 0.0 0.95 0.00 1.70 9 1009.4
20260509114033 59 0 0.0 0.0 0.99 0.00 1.62 9 1009.6